Washington Dulles International Airport
KIAD : now visible

Airfield :











YOU CAN JOIN US ON...

 
LOGIN :

Register | Disclaimer

   EN    FR    IT 

 









Legend :    VFR   Marginal VFR   IFR   Intensive IFR   Very Intensive IFR
Visi :
Ceiling :
>= 8 km
>= 3000ft
5 to 8 km
1000 to 3000 ft
1500m to 5 km
500 to 1000 ft
800 to 1500m
200 to 500 ft
< 800m
< 200 ft
Symbols :   Thunderstorms  Fog  Heavy snow  Heavy precipitations  Wind > 20 kt






- Airport Elevation : 312 ft
- IATA code : IAD


KIAD - Washington Dulles International

CURRENT METAR :
  • 231352Z 19004KT 10SM BKN170 BKN250 M04/M11 A2999 RMK AO2 SLP159 T10441106

EXPIRED METARs :
  • 231252Z 18004KT 10SM BKN190 BKN230 M07/M11 A3001 RMK AO2 SLP167 T10671106

TAF KIAD
Valid from the 23 at 12:00 until the 24 at 18:00 UTC


231120Z 2312/2418 VRB03KT P6SM BKN190 BKN250
FM231800 19005KT P6SM BKN090
FM232200 VRB03KT P6SM BKN080
FM240400 33004KT P6SM SCT090
FM240900 VRB03KT P6SM SCT250
FM241500 33004KT P6SM BKN190
KZDC FIR / North America



MET'MAP, your aeronautical weather chart ! - Copyright ORBIFLY December 2007 - Disclaimer

ORBIFLY MET'MAP TEAM :

Programming & Development : Alexandra Zaïnal
Concept & original design : Baudouin d'Aumeries
Assistance for programming : Marc-Olivier Méhu
Technical & hardware support : Manuel Goepfert

Contact : metmap@orbifly.com




SOURCES & CREDITS :

   NOAA       Earth
Advisory